Terug naar catalogus

STARLINK-6194

ActiefCommunicatieVLEO
NORAD 57077·PAYLOAD·🇺🇸 United States

Gelanceerd Jun 22, 2023 vanaf Vandenberg Space Force Base

Loading…

Volgende Passages (komende 24 uur)

TLE

VersSource: CelesTrak SupGP

Epoch: Sep 14, 2026, 22:03 UTC

1 57077C 23088AF  26257.91923611  .00010654  00000+0  38593-3 0  2574
2 57077  43.0022 107.8245 0001251 274.3456 182.4720 15.27568516    17

Volg STARLINK-6194 in realtime met AllMySat

Download on the App Store